Regional Weather Roundup
Issued by NWS Cleveland, OH

Home | Current Version | Previous Version | Graphics & Text | Print | Product List | Glossary On
Versions: 1 2 3 4 5 6 7 8 9 10 11 12 13 14 15 16 17 18 19 20 21 22 23 24 25 26 27 28 29 30 31 32 33 34 35 36 37 38 39 40 41 42 43 44 45 46 47 48 49 50
000
ASUS41 KCLE 012110
RWRCLE
OHIO REGIONAL WEATHER ROUNDUP
NATIONAL WEATHER SERVICE WILMINGTON, OH
500 PM EDT MON JUN 01 2015

NOTE: "FAIR" INDICATES FEW OR NO CLOUDS BELOW 12,000 FEET WITH NO
SIGNIFICANT WEATHER AND/OR OBSTRUCTIONS TO VISIBILITY.

OHZ001>008-015>018-024>027-034-035-043-044-012200-
   NORTHWEST OHIO

CITY           SKY/WX    TMP DP  RH WIND       PRES   REMARKS
DEFIANCE       CLOUDY    60  47  61 NE7       30.18F
FINDLAY        CLOUDY    56  48  74 NE14      30.17F
TOLEDO EXPRESS CLOUDY    60  47  61 NE6       30.18F
TOLEDO EXEC    CLOUDY    58  45  62 E9        30.19F
LIMA           CLOUDY    54  49  83 NE13      30.17F
$$

OHZ009>014-019>023-028>033-038-089-012200-
   NORTHEAST OHIO

CITY           SKY/WX    TMP DP  RH WIND       PRES   REMARKS
CLE-HOPKINS    CLOUDY    54  46  74 NE13      30.19F
CLE-LAKEFRONT  CLOUDY    54  46  74 NE13      30.17F
CUY CO. ARPT   CLOUDY    54 N/A N/A NE14      30.19
LORAIN-ELYRIA  CLOUDY    52  45  77 NE12      30.18F
ASHTABULA      CLOUDY    53  46  77 NE10G16   30.19F
AKRON-CANTON   CLOUDY    53  47  79 N12       30.14F
WOOSTER        CLOUDY    52  48  86 N6        30.16F
MANSFIELD      CLOUDY    51  48  89 N12       30.16F
YOUNGSTOWN     CLOUDY    51  46  83 N10       30.16S
$$

OHZ042-051>053-060>062-070>072-077>081-012200-
  SOUTHWEST OHIO

CITY           SKY/WX    TMP DP  RH WIND       PRES   REMARKS
CINC-COVINGTON CLOUDY    57  51  80 NE10      30.11F
CINC-LUNKEN    CLOUDY    57  52  83 NE8       30.13F
HAMILTON       CLOUDY    59  53  80 NE7       30.13F
DAYTON         LGT RAIN  57  53  86 NE16      30.14S
WRIGHT-PAT AFB PTSUNNY   56  52  85 NE14      30.13F
DAYTON GENERAL CLOUDY    57  52  83 NE13      30.11F
WILMINGTON     CLOUDY    54  50  86 N10       30.13S
$$

OHZ036-037-039>041-045>050-054>059-063>069-073>076-082>088-012200-
  CENTRAL AND SOUTHEAST OHIO

CITY           SKY/WX    TMP DP  RH WIND       PRES   REMARKS
COLUMBUS       LGT RAIN  55  51  86 N12       30.13F
OSU AIRPORT    LGT RAIN  54  50  86 N8        30.13F
BOLTON FIELD   LGT RAIN  54  52  94 N12       30.13F
RICKENBACK AFB RAIN      54  51  89 N10       30.11F
NEWARK         LGT RAIN  54  50  86 VRB5      30.13F
MARION         CLOUDY    53  47  79 NE14      30.16F
LANCASTER      LGT RAIN  55  51  86 NE12      30.12F FOG
ZANESVILLE     LGT RAIN  54  48  80 N9        30.13S
NEW PHILLY     CLOUDY    57  49  74 N8        30.15R
$$


USA.gov is the U.S. government's official web portal to all federal, state and local government web resources and services.